Regional Weather Roundup
Issued by NWS

Home | Current Version | Previous Version | Text Only | Print | Product List | Glossary On
Versions: 1 2 3 4 5 6 7 8 9 10 11 12 13 14 15 16 17 18 19 20 21 22 23 24 25 26 27 28 29 30 31 32 33 34 35 36 37 38 39 40 41 42 43 44 45 46 47 48 49 50
082
ASUS44 KLIX 190105
RWRLA
LOUISIANA WEATHER ROUNDUP
NATIONAL WEATHER SERVICE NEW ORLEANS LA
800 PM CDT THU SEP 18 2014

NOTE: "FAIR" INDICATES FEW OR NO CLOUDS BELOW 12,000 FEET WITH NO
      SIGNIFICANT WEATHER AND/OR OBSTRUCTIONS TO VISIBILITY.
      SKY/WX - SKY CONDITION AND SIGNIFICANT WEATHER.
      TMP - AIR TEMPERATURE.    DP   - DEWPOINT TEMPERATURE.
      RH  - RELATIVE HUMIDITY.  PRES - PRESSURE.
      HX  - HEAT INDEX.         WCI  - WIND CHILL INDEX.

*  THESE STATIONS ARE NOT NWS OR FAA STATIONS AND ARE NOT UNDER
   NWS QUALITY CONTROL.

LAZ040-048-061>063-065-066-069-190200-
SOUTHEAST LOUISIANA

CITY           SKY/WX    TMP DP  RH WIND       PRES   REMARKS
N.O. AUDUBON     N/A     81  70  68 MISG        N/A
N.O. INTL ARPT LGT RAIN  79  67  66 SE3       29.89R
N.O. LAKEFRONT CLOUDY    79  70  74 SE6       29.90R
N.O. DOWNTOWN* FAIR      82  64  54 SE6       29.90R
SLIDELL        CLOUDY    81  74  79 SE3       29.90R
BATON ROUGE    CLOUDY    72  70  93 N8        29.89F
BOOTHVILLE     LGT RAIN  82  75  79 CALM      29.90R
BELLE CHASSE   CLOUDY    75  70  84 CALM      29.89R
BOGALUSA*      FAIR      77  72  84 CALM      29.93R
GALLIANO*      NOT AVBL
NEW ROADS*     RAIN      72  69  92 E5        29.91R
GONZALES*      LGT RAIN  73  73 100 CALM      29.88F
HAMMOND*       CLOUDY    79  70  73 CALM      29.92R
HOUMA*         LGT RAIN  76  69  80 SE5       29.90R
PORT FOURCHON* CLEAR     81  73  78 SW5       29.93R

$$

LAZ041-044-053-054-190200-
SOUTHWEST LOUISIANA

CITY           SKY/WX    TMP DP  RH WIND       PRES   REMARKS
LAKE CHARLES   CLOUDY    75  73  93 CALM      29.88S
LAFAYETTE      LGT RAIN  79  78  97 CALM      29.89R
PATTERSON      CLOUDY    75  72  88 CALM      29.92S
SALT POINT       N/A     76  72  87 SE6       29.90R
NEW IBERIA     LGT RAIN  80  76  87 E6        29.89S
CHENAULT AIRPK CLOUDY    77  75  94 CALM      29.89R

$$

LAZ027-028-190200-
CENTRAL LOUISIANA

CITY           SKY/WX    TMP DP  RH WIND       PRES   REMARKS
FORT POLK      CLOUDY    74  73  97 CALM      29.89F
ALEXANDRIA INT CLOUDY    79  75  87 CALM      29.87S
ALEXANDRIA     CLOUDY    79  75  87 CALM      29.89S

$$

LAZ001-002-190200-
NORTHWEST LOUISIANA

CITY           SKY/WX    TMP DP  RH WIND       PRES   REMARKS
SHREVEPORT     MOCLDY    80  70  71 SW6       29.88R
BARKSDALE AFB  MOCLDY    77  70  79 S5        29.89R
DTN SHREVEPORT MOCLDY    79  72  79 S3        29.88R

$$

LAZ014-016-190200-
NORTHEAST LOUISIANA

CITY           SKY/WX    TMP DP  RH WIND       PRES   REMARKS
MONROE         CLOUDY    77  74  90 CALM      29.90R
TALLULAH       CLOUDY    77  69  76 E8        29.93R

$$




USA.gov is the U.S. government's official web portal to all federal, state and local government web resources and services.